Radioactive Concentration measured by Seawater Radiation Monitor near Fukushima Daiichi Nuclear Power Station
Date,Time,Cs137(Bq/L),Cs134(Bq/L),Total β(Bq/L)
2017/10/05,00:00,0.55,ND,ND
2017/10/05,00:10,0.53,ND,ND
2017/10/05,00:20,0.55,ND,ND
2017/10/05,00:30,0.55,ND,ND
2017/10/05,00:40,0.55,ND,ND
2017/10/05,00:50,0.55,ND,ND
2017/10/05,01:00,0.56,ND,ND
2017/10/05,01:10,0.56,ND,ND
2017/10/05,01:20,0.55,ND,ND
2017/10/05,01:30,0.40,0.027,ND
2017/10/05,01:40,0.40,0.028,ND
2017/10/05,01:50,0.55,ND,ND
2017/10/05,02:00,0.56,ND,ND
2017/10/05,02:10,0.57,ND,ND
2017/10/05,02:20,0.59,ND,ND
2017/10/05,02:30,0.59,ND,ND
2017/10/05,02:40,0.58,ND,ND
2017/10/05,02:50,0.58,ND,ND
2017/10/05,03:00,0.58,ND,ND
2017/10/05,03:10,0.58,ND,ND
2017/10/05,03:20,0.57,ND,ND
2017/10/05,03:30,0.58,ND,ND
2017/10/05,03:40,0.57,ND,ND
2017/10/05,03:50,0.56,ND,ND
2017/10/05,04:00,0.56,ND,ND
2017/10/05,04:10,0.52,ND,ND
2017/10/05,04:20,0.53,ND,ND
2017/10/05,04:30,0.53,ND,ND
2017/10/05,04:40,0.53,ND,ND
2017/10/05,04:50,0.54,ND,ND
2017/10/05,05:00,0.54,ND,ND
2017/10/05,05:10,0.46,ND,ND
2017/10/05,05:20,0.54,ND,ND
2017/10/05,05:30,0.52,ND,ND
2017/10/05,05:40,0.44,ND,ND
2017/10/05,05:50,0.53,ND,ND
2017/10/05,06:00,0.53,ND,ND
2017/10/05,06:10,0.55,ND,ND
2017/10/05,06:20,0.55,ND,ND
2017/10/05,06:30,0.54,ND,ND
2017/10/05,06:40,0.54,ND,ND
2017/10/05,06:50,0.53,ND,ND
2017/10/05,07:00,0.54,ND,ND
2017/10/05,07:10,0.54,ND,ND
2017/10/05,07:20,0.56,ND,ND
2017/10/05,07:30,0.58,ND,ND
2017/10/05,07:40,0.59,ND,ND
2017/10/05,07:50,0.60,ND,ND
2017/10/05,08:00,0.58,ND,ND
2017/10/05,08:10,0.59,ND,ND
2017/10/05,08:20,0.58,ND,ND
2017/10/05,08:30,0.59,ND,ND
2017/10/05,08:40,0.58,ND,ND
2017/10/05,08:50,0.58,ND,ND
2017/10/05,09:00,0.59,ND,ND
2017/10/05,09:10,0.58,ND,ND
2017/10/05,09:20,0.57,ND,ND
2017/10/05,09:30,0.57,ND,ND
2017/10/05,09:40,0.58,ND,ND
2017/10/05,09:50,0.57,ND,ND
2017/10/05,10:00,0.57,ND,ND
2017/10/05,10:10,0.58,ND,ND
2017/10/05,10:20,0.58,ND,ND
2017/10/05,10:30,0.58,ND,ND
2017/10/05,10:40,0.58,ND,ND
2017/10/05,10:50,0.59,ND,ND
2017/10/05,11:00,0.60,ND,ND
2017/10/05,11:10,0.61,ND,ND
2017/10/05,11:20,0.61,ND,ND
2017/10/05,11:30,0.61,ND,ND
2017/10/05,11:40,0.61,ND,ND
2017/10/05,11:50,0.61,ND,ND
2017/10/05,12:00,0.59,ND,ND
2017/10/05,12:10,0.58,ND,ND
2017/10/05,12:20,0.58,ND,ND
2017/10/05,12:30,0.56,ND,ND
2017/10/05,12:40,0.56,ND,ND
2017/10/05,12:50,0.57,ND,ND
2017/10/05,13:00,0.46,ND,ND
2017/10/05,13:10,0.45,ND,ND
2017/10/05,13:20,0.44,ND,ND
2017/10/05,13:30,0.57,ND,ND
2017/10/05,13:40,0.48,ND,ND
2017/10/05,13:50,0.48,ND,ND
2017/10/05,14:00,0.49,ND,ND
2017/10/05,14:10,0.47,ND,ND
2017/10/05,14:20,0.49,ND,ND
2017/10/05,14:30,0.45,ND,ND
2017/10/05,14:40,0.47,ND,ND
2017/10/05,14:50,0.45,ND,ND
2017/10/05,15:00,0.48,ND,ND
2017/10/05,15:10,0.48,ND,ND
2017/10/05,15:20,0.47,ND,ND
2017/10/05,15:30,0.49,ND,ND
2017/10/05,15:40,0.45,0.027,ND
2017/10/05,15:50,0.45,0.029,ND
2017/10/05,16:00,0.43,0.032,ND
2017/10/05,16:10,0.43,0.038,ND
2017/10/05,16:20,0.44,0.034,ND
2017/10/05,16:30,0.43,0.030,ND
2017/10/05,16:40,0.42,0.027,ND
2017/10/05,16:50,0.40,0.034,ND
2017/10/05,17:00,0.41,0.029,ND
2017/10/05,17:10,0.44,ND,ND
2017/10/05,17:20,0.44,ND,ND
2017/10/05,17:30,0.40,0.031,ND
2017/10/05,17:40,0.39,0.032,ND
2017/10/05,17:50,0.43,ND,ND
2017/10/05,18:00,0.44,ND,ND
2017/10/05,18:10,0.42,ND,ND
2017/10/05,18:20,0.40,ND,ND
2017/10/05,18:30,0.41,ND,ND
2017/10/05,18:40,0.40,ND,ND
2017/10/05,18:50,0.42,ND,ND
2017/10/05,19:00,0.51,ND,ND
2017/10/05,19:10,0.52,ND,ND
2017/10/05,19:20,0.53,ND,ND
2017/10/05,19:30,0.52,ND,ND
2017/10/05,19:40,0.44,ND,ND
2017/10/05,19:50,0.44,ND,ND
2017/10/05,20:00,0.44,ND,ND
2017/10/05,20:10,0.52,ND,ND
2017/10/05,20:20,0.53,ND,ND
2017/10/05,20:30,0.53,ND,ND
2017/10/05,20:40,0.51,ND,ND
2017/10/05,20:50,0.50,ND,ND
2017/10/05,21:00,0.49,ND,ND
2017/10/05,21:10,0.51,ND,ND
2017/10/05,21:20,0.51,ND,ND
2017/10/05,21:30,0.56,ND,ND
2017/10/05,21:40,0.60,ND,ND
2017/10/05,21:50,0.64,ND,ND
2017/10/05,22:00,0.66,ND,ND
2017/10/05,22:10,0.68,ND,ND
2017/10/05,22:20,0.69,ND,ND
2017/10/05,22:30,0.69,ND,ND
2017/10/05,22:40,0.67,ND,ND
2017/10/05,22:50,0.68,ND,ND
2017/10/05,23:00,0.67,ND,ND
2017/10/05,23:10,0.67,ND,ND
2017/10/05,23:20,0.68,ND,ND
2017/10/05,23:30,0.65,ND,ND
2017/10/05,23:40,0.64,ND,ND
2017/10/05,23:50,0.62,ND,ND
